Flag for Morocco Weather past 2 weeks in Marrakech, Morocco

Now
70 °F

Passing clouds.


Feels Like: 70 °F
Forecast: 64 / 87 °F
Wind: 7 mph from West

Location: Marrakech Airport

Current Time: Sep 19, 2014 at 1:34:17 AM

Latest Report: Sep 19, 2014 at 1:00 AM


Visibility: N/A

Pressure: 30.01 "Hg

Humidity: 73%

Dew point: 61 °F

Location of MarrakechLocation

Historic Weather in Marrakech — Graph

°F

Marrakech temperature yesterday

Maximum temperature yesterday: 84 °F (at 5:30 PM)
Minimum temperature yesterday: 68 °F (at 3:00 AM)
Average temperature yesterday: 74 °F

Past Weeks' High & Low Weather Summary

 TemperatureHumidityPressure
High95 °F (Sep 4, 4:00 PM)100% (Sep 7, 5:30 AM)30.12 "Hg (Sep 7, 5:30 AM)
Low64 °F (Sep 10, 7:30 AM)22% (Sep 13, 3:30 PM)29.86 "Hg (Sep 16, 6:00 AM)
Average79 °F58%30.01 "Hg
* Reported Midnight between Sep 3 and Sep 4 — Sep 19 12:30 AM, Marrakech, Weather by CustomWeather, © 2014

Note: Actual official high and low records may vary slightly from our data, if they occured in-between our weather recording intervals... More about our weather records

Advertising

Marrakech weather history for previous 24 hours

 ConditionsComfort  
Time TempWeatherWind HumidityBarometerVisibility
12:30 AM
Sep 19
72 °FPassing clouds.8 mph69%30.01 "HgN/A
12:00 AM72 °FPassing clouds.7 mph69%30.01 "HgN/A
11:30 PM
Sep 18
72 °FPassing clouds.10 mph69%30.01 "HgN/A
11:00 PM72 °FPassing clouds.10 mph65%30.01 "HgN/A
10:30 PM72 °FPassing clouds.10 mph61%30.01 "HgN/A
10:00 PM73 °FPassing clouds.12 mph57%30.01 "HgN/A
9:30 PM73 °FPartly cloudy.12 mph57%29.98 "HgN/A
9:00 PM75 °FPartly cloudy.12 mph50%29.95 "HgN/A
8:30 PM77 °FPartly cloudy.13 mph47%29.95 "HgN/A
8:00 PM79 °FPartly cloudy.15 mph48%29.92 "HgN/A
7:30 PM81 °FBroken clouds.7 mph37%29.92 "HgN/A
7:00 PM82 °FBroken clouds.3 mph37%29.89 "HgN/A
6:30 PM82 °FBroken clouds.8 mph37%29.89 "HgN/A
6:00 PM82 °FBroken clouds.7 mph37%29.89 "HgN/A
5:30 PM84 °FBroken clouds.3 mph35%29.89 "HgN/A
5:00 PM82 °FBroken clouds.6 mph37%29.89 "HgN/A
4:00 PM82 °FPleasantly warm.No wind37%29.92 "HgN/A
3:30 PM81 °FWarm.5 mph42%29.92 "HgN/A
3:00 PM81 °FBroken clouds.7 mph42%29.92 "HgN/A
2:30 PM79 °FBroken clouds.9 mph45%29.95 "HgN/A
2:00 PM79 °FBroken clouds.7 mph45%29.95 "HgN/A
1:30 PM77 °FBroken clouds.9 mph51%29.95 "HgN/A
1:00 PM77 °FBroken clouds.10 mph54%29.98 "HgN/A
12:30 PM75 °FBroken clouds.8 mph61%29.98 "HgN/A
12:00 PM75 °FBroken clouds.8 mph61%29.98 "HgN/A
11:30 AM75 °FBroken clouds.8 mph61%29.98 "HgN/A
11:00 AM73 °FPartly sunny.8 mph65%29.98 "HgN/A
10:30 AM72 °FPartly sunny.8 mph73%29.98 "HgN/A
10:00 AM70 °FPartly sunny.7 mph83%29.95 "HgN/A
9:30 AM70 °FPartly sunny.7 mph83%29.95 "HgN/A
9:00 AM68 °FScattered clouds.7 mph83%29.95 "HgN/A
8:30 AM68 °FPartly sunny.5 mph83%29.95 "HgN/A
8:00 AM68 °FPartly sunny.2 mph88%29.95 "HgN/A
7:30 AM68 °FBroken clouds.3 mph88%29.92 "HgN/A
7:00 AM68 °FPartly cloudy.3 mph88%29.92 "HgN/A
6:30 AM68 °FPassing clouds.5 mph88%29.92 "HgN/A
6:00 AM68 °FPassing clouds.5 mph88%29.92 "HgN/A
5:30 AM68 °FPassing clouds.5 mph83%29.95 "HgN/A
5:00 AM68 °FPassing clouds.6 mph83%29.92 "HgN/A
4:30 AM68 °FPassing clouds.5 mph83%29.92 "HgN/A
4:00 AM68 °FPassing clouds.6 mph83%29.95 "HgN/A
3:30 AM68 °FPassing clouds.5 mph83%29.95 "HgN/A
3:00 AM68 °FPassing clouds.6 mph78%29.95 "HgN/A
2:30 AM70 °FPassing clouds.8 mph78%29.95 "HgN/A
2:00 AM70 °FPassing clouds.6 mph73%29.95 "HgN/A
1:30 AM70 °FPassing clouds.7 mph73%29.95 "HgN/A
1:00 AM70 °FPassing clouds.7 mph73%29.95 "HgN/A
Weather by CustomWeather, © 2014

See weather overviewHow to use our weather pages